Weather History for Moab, UT

Change the Weather History Date:

Sunday, May 27, 2012

  Actual Average Record
Temperature  
Mean Temperature 57 °F 66 °F  
Max Temperature 70 °F 83 °F 97 °F (1951)
Min Temperature 43 °F 50 °F 39 °F (1929)
Degree Days  
Heating Degree Days 8 2  
Month to date heating degree days 50 127  
Since 1 July heating degree days 5090 5552  
Cooling Degree Days 0 4  
Month to date cooling degree days 58 43  
Year to date cooling degree days 76 46  
Growing Degree Days 8 (Base 50)    
Moisture  
Dew Point 16 °F    
Average Humidity 21    
Maximum Humidity 31    
Minimum Humidity 11    
Precipitation  
Precipitation 0.00 in 0.01 in 0.20 in (1929)
Month to date precipitation T 0.51  
Year to date precipitation 0.65 3.13  
Sea Level Pressure  
Sea Level Pressure 29.85 in    
Wind  
Wind Speed 12 mph (West)    
Max Wind Speed 28 mph    
Max Gust Speed 36 mph    
Visibility 10 miles    
Events      
T = Trace of Precipitation, MM = Missing Value Source: NWS Daily Summary

Daily Weather History Graph

Daily Weather History Graph

Search for Another Location

Airport:

Trip Planner

Search our weather history database for the weather conditions in past years. The results will help you decide how hot, cold, wet, or windy it might be!

Date:

Astronomy

May. 27, 2012 Rise Set
Actual Time 5:58 AM MDT 8:34 PM MDT
Civil Twilight 5:27 AM MDT 9:05 PM MDT
Nautical Twilight 4:48 AM MDT 9:44 PM MDT
Astronomical Twilight 4:05 AM MDT 10:28 PM MDT
Moon 12:04 PM MDT (5/27) 12:45 AM MDT (5/27)
Length of Visible Light 15h 38m
Length of Day
14h 36m
Waxing Crescent, 38% of the Moon is Illuminated
May 27
Waxing Crescent
May 28
First Quarter
Jun 4
Full
Jun 11
Last Quarter
Jun 19
New

Hourly Weather History & Observations

Time (MDT) Temp. Windchill Dew Point Humidity Pressure Visibility Wind Dir Wind Speed Gust Speed Precip Events Conditions
12:53 AM 52.0 °F - 12.9 °F 21% 29.75 in 10.0 mi West 9.2 mph - N/A   Clear
1:53 AM 52.0 °F - 15.1 °F 23% 29.75 in 10.0 mi West 13.8 mph - N/A   Clear
2:53 AM 50.0 °F - 15.1 °F 25% 29.77 in 10.0 mi NNW 8.1 mph - N/A   Clear
3:53 AM 48.9 °F - 15.1 °F 26% 29.78 in 10.0 mi SW 4.6 mph - N/A   Clear
4:53 AM 46.0 °F 43.1 °F 15.1 °F 29% 29.81 in 10.0 mi WSW 5.8 mph - N/A   Clear
5:53 AM 45.0 °F 41.8 °F 16.0 °F 31% 29.82 in 10.0 mi WSW 5.8 mph - N/A   Clear
6:53 AM 48.0 °F - 17.1 °F 29% 29.84 in 10.0 mi Calm Calm - N/A   Clear
7:53 AM 55.9 °F - 19.0 °F 24% 29.83 in 10.0 mi SW 10.4 mph - N/A   Clear
8:53 AM 59.0 °F - 18.0 °F 20% 29.83 in 10.0 mi WSW 13.8 mph - N/A   Clear
9:53 AM 61.0 °F - 19.0 °F 20% 29.83 in 10.0 mi WSW 16.1 mph 23.0 mph N/A   Clear
10:53 AM 62.1 °F - 18.0 °F 18% 29.84 in 10.0 mi West 16.1 mph 19.6 mph N/A   Mostly Cloudy
11:53 AM 61.0 °F - 18.0 °F 19% 29.87 in 10.0 mi West 8.1 mph 18.4 mph N/A   Mostly Cloudy
12:53 PM 66.9 °F - 18.0 °F 15% 29.86 in 10.0 mi WSW 19.6 mph 26.5 mph N/A   Clear
1:53 PM 66.0 °F - 17.1 °F 15% 29.88 in 10.0 mi WNW 9.2 mph 24.2 mph N/A   Clear
2:34 PM 66.2 °F - 17.6 °F 15% 29.97 in 10.0 mi WNW 12.7 mph 28.8 mph N/A   Partly Cloudy
2:53 PM 66.9 °F - 16.0 °F 14% 29.87 in 10.0 mi West 23.0 mph 31.1 mph N/A   Partly Cloudy
3:53 PM 68.0 °F - 16.0 °F 14% 29.87 in 10.0 mi SW 11.5 mph 19.6 mph N/A   Partly Cloudy
4:53 PM 70.0 °F - 14.0 °F 12% 29.87 in 10.0 mi WNW 24.2 mph 35.7 mph N/A   Scattered Clouds
5:53 PM 69.1 °F - 14.0 °F 12% 29.88 in 10.0 mi West 17.3 mph 28.8 mph N/A   Clear
6:53 PM 68.0 °F - 14.0 °F 12% 29.87 in 10.0 mi West 16.1 mph 24.2 mph N/A   Clear
7:53 PM 66.0 °F - 15.1 °F 14% 29.86 in 10.0 mi WNW 11.5 mph - N/A   Clear
8:53 PM 61.0 °F - 15.1 °F 17% 29.88 in 10.0 mi NW 10.4 mph - N/A   Clear
9:53 PM 57.0 °F - 15.1 °F 19% 29.91 in 10.0 mi WNW 11.5 mph - N/A   Mostly Cloudy
10:53 PM 52.0 °F - 15.1 °F 23% 29.94 in 10.0 mi NW 8.1 mph - N/A   Clear
11:53 PM 52.0 °F - 18.0 °F 26% 29.95 in 10.0 mi NW 9.2 mph - N/A   Clear